Location: Fort Wayne
(41.1310°N, 85.1290°W)
Time: 11:40:57
(UTC-04:00)

Cosmos 1980 - Visible Passes

Search period start: 06 July 2015 00:00
Search period end: 16 July 2015 00:00
Orbit: 838 x 848 km, 71.0° (Epoch: 06 July)

Date Brightness Start Highest point End Pass type
(mag) Time Alt. Az. Time Alt. Az. Time Alt. Az.
06 Jul 5.7 00:01:04 10° N 00:05:01 19° NE 00:08:11 13° E visible
06 Jul 3.6 01:44:06 10° NNW 01:49:46 70° WSW 01:50:01 69° SW visible
06 Jul 5.7 23:46:38 10° N 23:50:29 19° NE 23:53:45 12° E visible
07 Jul 3.6 01:29:35 10° NNW 01:35:16 73° WSW 01:35:34 71° SW visible
07 Jul 5.7 23:32:13 10° N 23:35:57 18° NE 23:39:20 12° E visible
08 Jul 3.6 01:15:05 10° NNW 01:20:47 76° WSW 01:21:10 72° SSW visible
08 Jul 5.7 23:17:47 10° N 23:21:25 17° NE 23:24:58 11° E visible
09 Jul 3.5 01:00:35 10° NNW 01:06:17 79° WSW 01:06:49 72° SSW visible
09 Jul 5.7 23:03:22 10° N 23:06:53 17° NE 23:10:35 10° E visible
10 Jul 3.5 00:46:06 10° NNW 00:51:48 83° WSW 00:52:29 70° S visible
10 Jul 5.8 22:48:57 10° N 22:52:20 16° NE 22:55:55 10° E visible
11 Jul 3.6 00:31:35 10° NNW 00:37:18 86° WSW 00:38:11 65° SSE visible
11 Jul 6.0 02:19:13 10° W 02:20:01 11° W 02:20:01 11° W visible
11 Jul 5.8 22:34:33 10° N 22:37:49 16° NE 22:41:16 10° E visible
12 Jul 3.6 00:17:05 10° NNW 00:22:48 89° WSW 00:23:55 60° SSE visible
12 Jul 5.9 02:04:18 10° WNW 02:05:45 11° W 02:05:45 11° W visible
12 Jul 5.8 22:20:09 10° NNE 22:23:16 15° NE 22:26:35 10° E visible
13 Jul 3.6 00:02:35 10° NNW 00:08:19 88° ENE 00:09:40 54° SSE visible
13 Jul 5.9 01:49:29 10° WNW 01:51:31 12° W 01:51:31 12° W visible
13 Jul 5.8 22:05:45 10° NNE 22:08:43 15° NE 22:11:54 10° E visible
13 Jul 3.6 23:48:05 10° NNW 23:53:49 84° ENE 23:55:28 48° SSE visible
14 Jul 5.9 01:34:43 10° WNW 01:37:14 13° W 01:37:19 13° W visible
14 Jul 5.8 21:51:22 10° NNE 21:54:10 14° NE 21:57:13 10° ENE visible
14 Jul 3.6 23:33:36 10° NNW 23:39:19 81° ENE 23:41:18 42° SSE visible
15 Jul 5.8 01:20:01 10° WNW 01:22:46 13° W 01:23:09 13° WSW visible
15 Jul 5.8 21:36:59 10° NNE 21:39:37 14° NE 21:42:30 10° ENE visible
15 Jul 3.7 23:19:06 10° NNW 23:24:49 78° ENE 23:27:10 37° SE visible
